CZ-6A DEB, 54276

Orbit data source: Space-Track

CZ-6A DEB, 54276 is space debris in SSO originally from a launch on Fri, 11 Nov 2022 UTC launched from the Taiyaun Space Center, China (TSC). Debris objects in space refer to the collection of defunct objects orbiting the Earth. Examples of debris include non-operational satellites, rocket bodies, and fragments generated from explosions, collisions, or faulty payload assembly.

Loading next visibility...
Identifier
54276, 2022-151T
Orbit
SSO
Country
Flag of CNCN / PRC
Related business
Manufacturer
SAST
Mission
Spacecraft
Bus & Motor
Unknown
Mass
Unknown
Launch date (UTC)
2022-11-11 (4 years ago)
Launch vehicle
Unknown
Launch site
Taiyaun Space Center, China (TSC)
Object type
Payload
Rocket body
Debris
Shape & HBR
Unknown shape, 0.1 m
Radar Cross Section
Small (<0.1 m²)

Expand to show TLE details & history
Last TLE update: 1 day ago

TLE from 1 day ago
0 CZ-6A DEB
1 54276U 22151T   26143.75054209  .00000377  00000-0  36898-3 0  9997
2 54276  98.8665  71.4378 0202782 239.6455 118.4508 13.76304563176620
Epoch: 2026-05-23T18:00Z
TLE epoch observation values (Epoch: 2026-05-23T18:00:46.836Z)
Latitude
-0.00002°
Longitude
-80.1199°
Altitude
1,053.246 km
Speed
7.289 km/s
True Right ascension
04h 45m 45s
True Declination
0° 00' 00"
Sunlit
Object was in daylight at epoch
Visualization orbit readout
Latitude
Unknown
Longitude
Unknown
Altitude
Unknown
Speed
Unknown
Apparent Right ascension
Unknown
Apparent Declination
Unknown
Sunlit
N/A
Visualization observer readout
Local Sidereal Time
10:16:39
Azimuth
Unknown
Elevation
Unknown
Doppler factor
Unknown
Orbital elements
Apogee altitude
1,123.339 km
Perigee altitude
825.153 km
Semi-major axis
7,352.383 km
Eccentricity
0.02028
Inclination
98.8665°
RAAN
71.4378°
Arg. of periapsis
239.6455°
True anomaly
120.46906°
Mean anomaly
118.4508°
Eccentric anomaly
119.4624°
Mean motion
3.44271 °/min
Orbital period
104.57 mins
BSTAR
0.00036898
Loading maneuver chart data...
Computing Atmospheric mass density...
Loading historical data...
Loading historical data...
Loading historical data...
Loading historical data...
Loading historical data...
Loading historical data...
Loading historical data...

Documentation

Showing up to 5 results
|